FW2508 Weather Reports


Display with metric or nautical units.
time (UTC)temp
F
wind
direction
speed
MPH
gust
MPH
rain 1hr
in
rain 24hr
in
rain mn
in
humidity
%
barometer
mb
20260505052602 48 127 3.0 5.0 0.00 0.00 0.00 93 1012.2
20260505052103 48 142 2.0 4.0 0.00 0.00 0.00 92 1012.1
20260505051559 48 191 2.0 4.0 0.00 0.00 0.00 92 1012.1
20260505051059 48 183 3.0 4.0 0.00 0.00 0.00 92 1012.0
20260505050559 48 200 0.0 2.0 0.00 0.00 0.00 92 1012.0
20260505050103 48 0 0.0 4.0 0.00 0.00 0.00 92 1012.1
20260505041559 48 231 2.0 3.0 0.00 0.00 0.00 90 1012.1
20260505041059 49 231 2.0 3.0 0.00 0.00 0.00 89 1012.2
20260505040602 49 238 2.0 3.0 0.00 0.00 0.00 88 1012.2
20260505040106 49 0 0.0 0.0 0.00 0.00 0.00 88 1012.2
20260505035558 49 0 0.0 1.0 0.00 0.00 0.00 87 1012.2
20260505035058 49 0 0.0 1.0 0.00 0.00 0.00 87 1012.1
20260505034559 49 0 0.0 3.0 0.00 0.00 0.00 86 1012.0
20260505034059 50 236 0.0 3.0 0.00 0.00 0.00 87 1012.1
20260505033601 50 233 0.0 2.0 0.00 0.00 0.00 86 1011.9
20260505033100 50 284 0.0 1.0 0.00 0.00 0.00 85 1011.9
20260505032559 51 0 0.0 1.0 0.00 0.00 0.00 84 1011.9
20260505032059 51 330 0.0 1.0 0.00 0.00 0.00 83 1011.8
20260505031600 51 0 0.0 2.0 0.00 0.00 0.00 82 1011.8
20260505031059 51 0 0.0 2.0 0.00 0.00 0.00 82 1011.8
20260505030558 51 5 0.0 1.0 0.00 0.00 0.00 81 1011.6
20260505030104 51 0 0.0 2.0 0.00 0.00 0.00 82 1011.5
20260505025559 51 89 1.0 2.0 0.00 0.00 0.00 82 1011.3
20260505025059 51 88 0.0 2.0 0.00 0.00 0.00 82 1011.2
20260505024601 51 0 0.0 2.0 0.00 0.00 0.00 83 1011.1
20260505024102 51 89 0.0 2.0 0.00 0.00 0.00 83 1011.1
20260505023600 51 342 0.0 2.0 0.00 0.00 0.00 83 1011.1
20260505023109 51 342 0.0 1.0 0.00 0.00 0.00 82 1011.2
20260505022602 51 0 0.0 1.0 0.00 0.00 0.00 81 1011.0
20260505022100 51 0 0.0 1.0 0.00 0.00 0.00 79 1011.0
20260505021602 51 0 0.0 0.0 0.00 0.00 0.00 78 1011.2
20260505021058 52 0 0.0 0.0 0.00 0.00 0.00 77 1011.2
20260505020558 52 0 0.0 1.0 0.00 0.00 0.00 77 1011.2
20260505015558 53 0 0.0 2.0 0.00 0.00 0.00 74 1011.2
20260505015102 53 261 0.0 2.0 0.00 0.00 0.00 72 1011.1
20260505014601 54 266 0.0 7.0 0.00 0.00 0.00 71 1011.0
20260505014058 55 281 3.0 7.0 0.00 0.00 0.00 68 1010.9
20260505013557 56 290 1.0 4.0 0.00 0.00 0.00 63 1010.9
20260505013058 57 290 0.0 4.0 0.00 0.00 0.00 59 1010.7
20260505012600 57 290 1.0 5.0 0.00 0.00 0.00 54 1010.6
20260505012058 57 312 2.0 5.0 0.00 0.00 0.00 54 1010.3
20260505011600 57 318 3.0 7.0 0.00 0.00 0.00 54 1010.3
20260505011058 58 316 4.0 7.0 0.00 0.00 0.00 53 1010.2
20260505010559 58 299 3.0 5.0 0.00 0.00 0.00 52 1010.1
20260505010105 58 298 2.0 7.0 0.00 0.00 0.00 53 1009.9
20260505005558 58 304 3.0 11.0 0.00 0.00 0.00 55 1009.7
20260505005058 58 322 2.0 12.0 0.00 0.00 0.00 55 1009.7
20260505004559 58 6 8.0 12.0 0.00 0.00 0.00 54 1009.7
20260505004058 58 23 8.0 12.0 0.00 0.00 0.00 55 1009.6
20260505003601 58 16 7.0 11.0 0.00 0.00 0.00 55 1009.8
20260505003106 58 352 5.0 11.0 0.00 0.00 0.00 54 1009.7
20260505002601 59 290 3.0 9.0 0.00 0.00 0.00 50 1009.8
20260505002100 59 300 3.0 9.0 0.00 0.00 0.00 50 1009.7
20260505001601 59 349 5.0 8.0 0.00 0.00 0.00 50 1009.7
20260505001057 58 314 2.0 6.0 0.00 0.00 0.00 52 1009.8
20260505000557 58 298 3.0 13.0 0.00 0.00 0.00 52 1009.8
20260505000113 59 314 5.0 13.0 0.00 0.00 0.00 51 1009.8
20260504235557 59 20 4.0 10.0 0.00 0.00 0.00 51 1009.9
20260504235100 60 297 5.0 10.0 0.00 0.00 0.00 50 1009.9
20260504234558 60 292 1.0 14.0 0.00 0.00 0.00 46 1009.7
20260504234057 60 295 4.0 14.0 0.00 0.00 0.00 47 1009.8
20260504233558 61 352 6.0 14.0 0.00 0.00 0.00 44 1009.9
20260504233106 62 276 2.0 13.0 0.00 0.00 0.00 43 1009.7
20260504232558 63 226 6.0 13.0 0.00 0.00 0.00 41 1009.6
20260504232058 63 295 4.0 6.0 0.00 0.00 0.00 36 1009.7
20260504231600 63 293 3.0 4.0 0.00 0.00 0.00 37 1009.6
20260504231057 63 305 3.0 9.0 0.00 0.00 0.00 37 1009.4
20260504230557 63 1 2.0 9.0 0.00 0.00 0.00 37 1009.3
20260504225602 64 307 7.0 13.0 0.00 0.00 0.00 36 1009.0
20260504225102 64 317 6.0 14.0 0.00 0.00 0.00 36 1008.9
20260504224601 64 2 9.0 15.0 0.00 0.00 0.00 36 1008.7
20260504224057 64 355 11.0 15.0 0.00 0.00 0.00 35 1008.6
20260504223557 64 4 10.0 16.0 0.00 0.00 0.00 35 1008.6
20260504223058 65 356 8.0 16.0 0.00 0.00 0.00 35 1008.6
20260504222559 65 3 8.0 20.0 0.00 0.00 0.00 33 1008.6
20260504222059 65 8 9.0 20.0 0.00 0.00 0.00 34 1008.6
20260504221600 66 311 8.0 18.0 0.00 0.00 0.00 33 1008.7
20260504221059 66 19 12.0 21.0 0.00 0.00 0.00 32 1008.6
20260504220600 66 35 14.0 21.0 0.00 0.00 0.00 32 1008.5
20260504220124 67 19 9.0 24.0 0.00 0.00 0.00 32 1008.5
20260504215600 68 355 5.0 24.0 0.00 0.00 0.00 31 1008.8
20260504215101 67 23 6.0 15.0 0.00 0.00 0.00 32 1008.9
20260504214559 66 330 8.0 25.0 0.00 0.00 0.00 33 1009.1
20260504214059 66 345 9.0 25.0 0.00 0.00 0.00 33 1009.4
20260504213559 67 356 13.0 25.0 0.00 0.00 0.00 32 1009.5
20260504213103 67 39 11.0 22.0 0.00 0.00 0.00 34 1009.4
20260504212600 65 330 6.0 12.0 0.00 0.00 0.00 38 1009.4
20260504212101 64 300 6.0 12.0 0.00 0.00 0.00 39 1009.5
20260504211558 64 308 7.0 11.0 0.00 0.00 0.00 38 1009.5
20260504211100 63 299 5.0 14.0 0.00 0.00 0.00 43 1009.6
20260504210558 62 297 5.0 24.0 0.00 0.00 0.00 44 1009.5
20260504210059 62 324 12.0 24.0 0.00 0.00 0.00 40 1009.5
20260504205559 64 1 8.0 16.0 0.00 0.00 0.00 43 1008.8
20260504205059 66 317 6.0 15.0 0.00 0.00 0.00 37 1008.7
20260504204559 67 300 8.0 16.0 0.00 0.00 0.00 28 1008.3
20260504204059 68 354 8.0 22.0 0.00 0.00 0.00 26 1008.2
20260504203600 69 312 10.0 22.0 0.00 0.00 0.00 26 1008.0
20260504203100 69 347 13.0 22.0 0.00 0.00 0.00 27 1007.9
20260504202559 69 359 10.0 20.0 0.00 0.00 0.00 26 1008.0
20260504202059 70 345 8.0 18.0 0.00 0.00 0.00 25 1007.9
20260504201601 72 356 5.0 10.0 0.00 0.00 0.00 23 1008.0
20260504201058 72 338 5.0 10.0 0.00 0.00 0.00 23 1008.1
20260504200558 73 293 4.0 10.0 0.00 0.00 0.00 22 1007.9
20260504195601 74 308 5.0 9.0 0.00 0.00 0.00 21 1007.9
20260504195100 74 316 5.0 9.0 0.00 0.00 0.00 21 1007.9
20260504194559 74 353 4.0 9.0 0.00 0.00 0.00 20 1007.9
20260504194100 74 314 6.0 10.0 0.00 0.00 0.00 21 1007.9
20260504193559 74 304 6.0 10.0 0.00 0.00 0.00 20 1007.8
20260504193100 74 306 5.0 9.0 0.00 0.00 0.00 18 1007.8
20260504192600 75 302 4.0 9.0 0.00 0.00 0.00 19 1007.8
20260504192059 74 293 6.0 10.0 0.00 0.00 0.00 19 1007.8
20260504191601 74 301 5.0 11.0 0.00 0.00 0.00 19 1007.8
20260504191101 75 288 6.0 12.0 0.00 0.00 0.00 18 1007.7
20260504190558 76 292 3.0 12.0 0.00 0.00 0.00 19 1007.7
20260504190112 76 325 6.0 12.0 0.00 0.00 0.00 18 1007.9
20260504185557 76 295 7.0 12.0 0.00 0.00 0.00 18 1007.9
20260504185057 75 288 6.0 12.0 0.00 0.00 0.00 19 1007.9
20260504184614 75 301 6.0 13.0 0.00 0.00 0.00 19 1007.9
20260504184058 75 309 7.0 13.0 0.00 0.00 0.00 18 1008.0
20260504183558 75 290 7.0 13.0 0.00 0.00 0.00 18 1008.0
20260504183104 75 297 5.0 13.0 0.00 0.00 0.00 18 1008.2
20260504182601 75 293 7.0 16.0 0.00 0.00 0.00 18 1008.1
20260504182057 76 288 7.0 16.0 0.00 0.00 0.00 19 1008.2
20260504181611 76 287 6.0 13.0 0.00 0.00 0.00 20 1008.2
20260504181102 76 288 7.0 13.0 0.00 0.00 0.00 19 1008.5
20260504180556 76 291 9.0 13.0 0.00 0.00 0.00 20 1008.5
20260504180103 75 300 7.0 12.0 0.00 0.00 0.00 20 1008.6
20260504175603 75 293 5.0 12.0 0.00 0.00 0.00 21 1008.7
20260504175100 75 288 6.0 12.0 0.00 0.00 0.00 20 1008.8
20260504174610 74 281 4.0 13.0 0.00 0.00 0.00 23 1008.9
20260504174100 74 281 5.0 13.0 0.00 0.00 0.00 25 1008.9
20260504173558 73 301 4.0 11.0 0.00 0.00 0.00 25 1009.0
20260504173104 72 266 7.0 13.0 0.00 0.00 0.00 25 1009.1
20260504172557 72 281 6.0 13.0 0.00 0.00 0.00 25 1009.1
20260504172057 71 301 7.0 13.0 0.00 0.00 0.00 25 1009.1
20260504171559 70 274 5.0 11.0 0.00 0.00 0.00 27 1009.1
20260504171101 70 288 5.0 10.0 0.00 0.00 0.00 26 1009.2
20260504170600 69 286 6.0 10.0 0.00 0.00 0.00 26 1009.2
20260504170109 70 282 6.0 9.0 0.00 0.00 0.00 26 1009.3
20260504151057 58 259 1.0 4.0 0.00 0.00 0.00 40 1009.7
20260504150603 58 257 1.0 4.0 0.00 0.00 0.00 42 1009.7
20260504141100 52 233 1.0 3.0 0.00 0.00 0.00 50 1009.7
20260504140557 52 242 1.0 3.0 0.00 0.00 0.00 50 1009.8
20260504130558 47 234 1.0 2.0 0.00 0.00 0.00 55 1009.8
20260504120107 41 0 0.0 1.0 0.00 0.00 0.00 64 1009.5
20260504110559 43 217 0.0 1.0 0.00 0.00 0.00 61 1009.9
20260504100559 42 224 1.0 2.0 0.00 0.00 0.00 60 1010.2
20260504100103 43 216 1.0 2.0 0.00 0.00 0.00 59 1010.1
20260504081556 43 227 1.0 2.0 0.00 0.00 0.00 58 1011.0
20260504081059 43 288 0.0 1.0 0.00 0.00 0.00 59 1010.9
20260504080557 42 0 0.0 0.0 0.00 0.00 0.00 59 1010.9
20260504060108 50 292 2.0 6.0 0.00 0.00 0.00 41 1011.2